Regional Weather Roundup
Issued by NWS

Home | Current Version | Previous Version | Text Only | Print | Product List | Glossary Off
Versions: 1 2 3 4 5 6 7 8 9 10 11 12 13 14 15 16 17 18 19 20 21 22 23 24 25 26 27 28 29 30 31 32 33 34 35 36 37 38 39 40 41 42 43 44 45 46 47 48 49 50

000
ASUS43 KMKX 230000
RWRWI

WISCONSIN REGIONAL WEATHER ROUNDUP
NATIONAL WEATHER SERVICE MILWAUKEE/SULLIVAN WI
600 PM CST WED NOV 22 2017

NOTE: "FAIR" INDICATES FEW OR NO CLOUDS BELOW 12,000 FEET WITH NO
SIGNIFICANT WEATHER AND/OR OBSTRUCTIONS TO VISIBILITY.

WIZ001-002-006>008-014>016-023>028-230100-
NORTHWEST WISCONSIN

CITY           SKY/WX    TMP DP  RH WIND       PRES   REMARKS
SUPERIOR ARPT  FLURRIES  23  17  77 SW7       30.05F WCI  15
6HR MIN TEMP:  23; 6HR MAX TEMP:  26;

ASHLAND        CLOUDY    24  13  62 S10       30.06F WCI  14
6HR MIN TEMP:  24; 6HR MAX TEMP:  26;

HAYWARD        FLURRIES  22  15  75 S9        30.04F WCI  12
6HR MIN TEMP:  22; 6HR MAX TEMP:  24; 6HR PCP: TRACE;

SIREN          FLURRIES  23  19  83 S10       30.05F WCI  12
CUMBERLAND     FLURRIES  21  18  86 S8        30.06F WCI  12
RICE LAKE      FLURRIES  23  19  85 SE7       30.10F WCI  14
CHETEK         CLOUDY    22  18  81 S6        30.10F WCI  15
LADYSMITH      LGT SNOW  23  18  81 S7        30.10F WCI  15
6HR MIN TEMP:  22; 6HR MAX TEMP:  24;

EAU CLAIRE     NOT AVBL
MENOMONIE      CLOUDY    27  16  64 SE7       30.09F WCI  19
6HR MIN TEMP:  25; 6HR MAX TEMP:  27;

NEW RICHMOND   CLOUDY    26  17  71 SE6       30.07F WCI  19
OSCEOLA        CLOUDY    26  19  76 SE9       30.09F WCI  16
$$

WIZ003>005-009-010-017-018-230100-
NORTH CENTRAL WISCONSIN

CITY           SKY/WX    TMP DP  RH WIND       PRES   REMARKS
MANITOWISH WTR CLOUDY    21  12  66 SW6       30.04F WCI  14
ARBOR VITAE    CLOUDY    23  14  66 S6        30.04F WCI  16
WOODRUFF       CLOUDY    23  14  66 S6        30.04F WCI  16
RHINELANDER    CLOUDY    23  13  65 SW8       30.06F WCI  14
6HR MIN TEMP:  23; 6HR MAX TEMP:  26;

EAGLE RIVER    CLOUDY    23  11  60 SW5       30.04F WCI  17
6HR MIN TEMP:  22; 6HR MAX TEMP:  25;

LAND O LAKES   CLOUDY    24  12  61 SW6       30.06F WCI  17
PHILLIPS       CLOUDY    21  14  73 S10       30.05F WCI  10
6HR MIN TEMP:  21; 6HR MAX TEMP:  23;

TOMAHAWK       MOCLDY    23  13  66 CALM      30.09F
MEDFORD        CLOUDY    23  13  66 SW9       30.09F WCI  13
MERRILL        MOCLDY    24  13  62 SW5       30.10F WCI  19
6HR MIN TEMP:  24; 6HR MAX TEMP:  26;

$$

WIZ029-030-035-036-043>047-230100-
CENTRAL WISCONSIN

CITY           SKY/WX    TMP DP  RH WIND       PRES   REMARKS
WAUSAU         CLOUDY    25  13  60 SW9       30.10F WCI  15
6HR MIN TEMP:  25; 6HR MAX TEMP:  27;

MOSINEE        CLOUDY    25  14  63 SW6       30.13F WCI  18
MARSHFIELD     CLOUDY    25  11  55 S6        30.10F WCI  18
6HR MIN TEMP:  24; 6HR MAX TEMP:  26;

STEVENS POINT  CLOUDY    25  12  58 SW6       30.15F WCI  18
WAUPACA        CLOUDY    31  14  49 S6        30.17S WCI  25
WAUTOMA        CLOUDY    29  14  53 SW6       30.17F WCI  23
6HR MIN TEMP:  27; 6HR MAX TEMP:  30;

WISC RAPIDS    CLOUDY    27  13  55 SW5       30.15F WCI  22
6HR MIN TEMP:  25; 6HR MAX TEMP:  28;

CAMP DOUGLAS     N/A     29  13  52 S3        30.14
6HR MIN TEMP:  28; 6HR MAX TEMP:  29;

$$

WIZ011>013-019>022-031-037>040-048>050-230100-
NORTHEAST WISCONSIN

CITY           SKY/WX    TMP DP  RH WIND       PRES   REMARKS
ANTIGO         CLOUDY    24  13  63 SW12      30.10F WCI  13
SHAWANO        CLOUDY    30  14  51 SW6       30.15F WCI  24
6HR MIN TEMP:  30; 6HR MAX TEMP:  32;

OCONTO         MOCLDY    28  14  55 SW6       30.16F WCI  22
STURGEON BAY   CLOUDY    27  17  66 S8        30.15F WCI  19
6HR MIN TEMP:  26; 6HR MAX TEMP:  28;

GREEN BAY      CLOUDY    29  18  63 SW7       30.16F WCI  22
6HR MIN TEMP:  28; 6HR MAX TEMP:  31;

MANITOWOC      CLOUDY    29  18  63 SW5       30.19F WCI  24
6HR MIN TEMP:  28; 6HR MAX TEMP:  30;

APPLETON       CLOUDY    28  12  50 SW8       30.16S WCI  20
CLINTONVILLE   CLOUDY    28  12  50 SW6       30.16F WCI  22
OSHKOSH        CLOUDY    29  16  58 SW5       30.17F WCI  24
6HR MIN TEMP:  27; 6HR MAX TEMP:  29;

$$

WIZ032>034-041-042-053>061-230100-
SOUTHWEST WISCONSIN

CITY           SKY/WX    TMP DP  RH WIND       PRES   REMARKS
LA CROSSE      CLOUDY    32  16  51 S6        30.14F WCI  26
6HR MIN TEMP:  27; 6HR MAX TEMP:  32;

SPARTA         CLOUDY    29  16  58 S6        30.16F WCI  23
VIROQUA        CLOUDY    29  18  65 S7        30.13F WCI  21
6HR MIN TEMP:  26; 6HR MAX TEMP:  29;

BOSCOBEL       CLOUDY    32  14  47 CALM      30.18F HAZE
6HR MIN TEMP:  30; 6HR MAX TEMP:  33;

PRAIRIE DU CHI MOCLDY    32  13  46 CALM      30.18F
PLATTEVILLE    CLOUDY    31  19  62 S6        30.18F WCI  25
$$

WIZ056-057-062-063-064-067-068-230100-
SOUTH CENTRAL WISCONSIN

CITY           SKY/WX    TMP DP  RH WIND       PRES   REMARKS
REEDSBURG      CLOUDY    29  15  55 S6        30.17F WCI  23
BARABOO/DELLS  CLOUDY    29  15  55 S6        30.17F WCI  23
LONE ROCK      NOT AVBL
MINERAL POINT  MOCLDY    32  18  55 S3        30.17F
MADISON        CLOUDY    31  15  52 SW6       30.19F WCI  25
6HR MIN TEMP:  28; 6HR MAX TEMP:  31;

MIDDLETON      CLOUDY    32  16  52 S6        30.19F WCI  26
WATERTOWN      CLOUDY    29  17  60 SW6       30.20F WCI  23
MONROE         CLOUDY    32  18  55 SW9       30.20S WCI  24
JANESVILLE     CLOUDY    32  18  55 SW7       30.21F WCI  26
$$

WIZ051-052-058>065-066-070>072-230100-
SOUTHEAST WISCONSIN

CITY           SKY/WX    TMP DP  RH WIND       PRES   REMARKS
MILWAUKEE      CLOUDY    32  16  51 SW8       30.22F WCI  25
6HR MIN TEMP:  31; 6HR MAX TEMP:  34;

WAUKESHA       CLOUDY    28  14  54 SW5       30.21F WCI  23
MILWAUKEE/TIMM MOCLDY    30  12  47 SW5       30.23S WCI  25
RACINE         PTCLDY    30  17  58 SW5       30.24S WCI  25
6HR MIN TEMP:  29; 6HR MAX TEMP:  34;

BURLINGTON     PTCLDY    31  24  73 SW3       30.22F
KENOSHA        PTCLDY    30  16  56 SW5       30.23S WCI  25
6HR MIN TEMP:  28; 6HR MAX TEMP:  34;

FOND DU LAC    CLOUDY    30  15  53 SW7       30.18F WCI  23
6HR MIN TEMP:  28; 6HR MAX TEMP:  31;

SHEBOYGAN      PTCLDY    29  17  61 SW6       30.19F WCI  23
6HR MIN TEMP:  29; 6HR MAX TEMP:  32; 6HR PCP: TRACE;

WEST BEND      CLOUDY    30  16  55 SW5       30.20S WCI  25
JUNEAU         CLOUDY    29  17  61 S6        30.20F WCI  23
$$

LSZ147-162-230100-
LAKE SUPERIOR

STATION/POSITION TIME  TEMP    WIND        PRES    WAVE
                       AIR SEA DIR/SP/G            HT/PER
                 (UTC) (F)     (DEG/KT/KT) (MB)    (FT/S)
DEVILS ISLAND    2300   26     200/ 13/ 17 1019.1F
SAXON HARBOR     2330   26     200/  6/ 12 1017.9F
$$

LMZ867-665-643>646-230100-
LAKE MICHIGAN

STATION/POSITION TIME  TEMP    WIND        PRES    WAVE
                       AIR SEA DIR/SP/G            HT/PER
                 (UTC) (F)     (DEG/KT/KT) (MB)    (FT/S)
N MID LAKE BUOY  2250   31 47  220/ 16/ 21 1023.0F   2/ 3
NORTHPORT PIER   2340   28     170/  5/ 12 1021.0F
KEWAUNEE LAKESHO 2330   28     240/  5/  7 1021.4F
SHEBOYGAN LAKESH 2300   31     230/  9/ 11 1023.8F
PORT WASHINGTON  2340   31     250/  4/  6 1024.0F
MILWAUKEE LAKESH 2330   32     230/ 10/ 12   N/A
S MID LAKE BUOY  2250   33 47  240/ 10/ 14 1024.8F   2/ 6
KENOSHA   LAKESH 2300   32     250/  5/  7 1024.0
$$

TC  - TEMPERATURE IN CELSIUS
VSB - VISIBILITY IN STATUTE MILES
WCI - WIND CHILL INDEX
HX  - HEAT INDEX




USA.gov is the U.S. government's official web portal to all federal, state and local government web resources and services.